Погода в Эсмани

Украина / Сумская область     51°48′33″N   34°02′29″E
темп.,
°C
ветер,
м/с
пор.,
м/с
влажн.,
%
обл.,
%
осадки,
мм/ч
давл.,
гПа
погр.,
м
22 октября, пт
пт2200:00+12ююз81661100 0.0 1003534
03:00+11юз71562100 0.0 1004480
06:00+11юз61365100 0.0 1004451
09:00+12зюз7137334 0.0 1006930
12:00+14зюз9145313 0.0 10071513
15:00+14зюз8135280 0.0 10082041
18:00+12зюз612505 0.0 1009511
21:00+8зюз38650 0.0 1011160
23 октября, сб
сб2300:00+8юз5144881 0.0 1011498
03:00+8зюз515570 0.0 1011508
06:00+7зюз614671 0.0 1010510
09:00+7зюз612645 0.0 1011773
12:00+10з8115118 0.0 10121505
15:00+9з812585 0.2 10131701
18:00+6з612605 0.1 1015565
21:00+5з512715 0.1 1016480
24 октября, вс
вс2400:00+3зюз411826 0.0 1017300
03:00+3зюз512815 0.0 1018305
06:00+3з5127678 0.0 1018302
09:00+5з51067100 0.0 1019729
12:00+6зсз796697 0.2 10201248
15:00+4зсз71189100 0.4 1020905
18:00+4сз7127593 0.4 10221061
21:00+2ссз713775 0.4 1024767
25 октября, пн
пн2500:000ссз612825 0.0 1026572
03:00−1сз510925 0.0 1028377
06:00−2ссз49955 0.0 1030274
09:00−1ссз48835 0.0 1032348
12:00+3ссз45525 0.0 1033814
15:00+5ссз34435 0.0 10331003
18:00+1ссз22570 0.0 103414
21:000сз11625 0.0 103410
26 октября, вт
вт2600:00−1ююз22640 0.0 103412
03:00−1юз33670 0.0 103435
06:00−2ююз35712 0.0 103474
09:000ююз37635 0.0 1033197
12:00+6юз584234 0.0 1031589
15:00+7юз6841100 0.0 1029734
18:00+3ююз41060100 0.0 1028204
21:00+3ююз51357100 0.0 1027297